Location: Zagreb
(45.8000°N, 16.0000°E)
Time: 15:18:02
(UTC+02:00)

A-11 Canister half - Visible Passes

Search period start: 13 July 2025 00:00
Search period end: 23 July 2025 00:00
Orbit: 1523 x 1684 km, 47.3° (Epoch: 12 July)

Date Brightness Start Highest point End Pass type
(mag) Time Alt. Az. Time Alt. Az. Time Alt. Az.
13 Jul 10.2 03:22:22 12° S 03:29:29 28° SE 03:37:10 10° E visible
14 Jul 10.2 03:01:41 15° S 03:07:44 26° SE 03:15:15 10° E visible
15 Jul 10.3 02:40:57 17° SSE 02:45:58 25° SE 02:53:19 10° E visible
15 Jul 9.3 04:39:58 10° SW 04:49:45 64° SSE 04:59:12 10° ENE visible
16 Jul 10.3 02:20:11 18° SSE 02:24:13 24° SE 02:31:22 10° E visible
16 Jul 9.3 04:18:27 11° SW 04:27:56 62° SSE 04:37:23 10° ENE visible
17 Jul 10.3 01:59:22 19° SSE 02:02:28 22° SE 02:09:24 10° E visible
17 Jul 9.3 03:57:38 15° SW 04:06:07 60° SSE 04:15:34 10° ENE visible
18 Jul 10.3 01:38:30 19° SE 01:40:43 21° SE 01:47:24 10° E visible
18 Jul 9.3 03:36:45 18° SW 03:44:19 58° SSE 03:53:44 10° ENE visible
19 Jul 10.3 01:17:36 19° SE 01:18:59 20° SE 01:25:23 10° E visible
19 Jul 9.3 03:15:51 22° SW 03:22:30 56° SE 03:31:54 10° ENE visible
20 Jul 10.3 00:56:38 18° SE 00:57:14 18° SE 01:03:21 10° E visible
20 Jul 9.3 02:54:53 26° SSW 03:00:42 54° SE 03:10:04 10° ENE visible
21 Jul 10.4 00:35:38 17° SE 00:35:38 17° SE 00:41:17 10° E visible
21 Jul 9.3 02:33:53 30° SSW 02:38:54 52° SE 02:48:15 10° ENE visible
21 Jul 9.2 04:33:38 10° WSW 04:43:40 89° N 04:53:21 10° ENE visible
22 Jul 10.5 00:14:34 16° ESE 00:14:34 16° ESE 00:19:09 10° E visible
22 Jul 9.3 02:12:49 33° SSW 02:17:05 51° SE 02:26:25 10° ENE visible
22 Jul 9.1 04:11:45 10° WSW 04:21:48 90° NNW 04:31:32 10° ENE visible
22 Jul 10.5 23:53:27 14° ESE 23:53:27 14° ESE 23:56:58 10° E visible
